Overview Statistics Trail Chart Weather Telemetry Raw packets
 

This is the latest recevied weather packets stored in our database for station/object N7WGJ. If no packets are shown the sender has not sent any weather packets the latest 10 day(s).

<< 6 7 8 9 10 11 12 >>
Time Temp. Humidity Pressure Rain* Wind** Luminosity Snow
1788573096 18.33° C 63% 1015.4 hPa 0 mm - - -
1788572492 18.33° C 62% 1015.1 hPa 0 mm - - -
1788571893 18.89° C 61% 1015 hPa 0 mm - - -
1788571292 18.89° C 62% 1014.9 hPa 0 mm - - -
1788570694 18.89° C 62% 1014.8 hPa 0 mm - - -
1788570109 18.89° C 62% 1014.7 hPa 0 mm - - -
1788569498 18.89° C 63% 1014.6 hPa 0 mm - - -
1788568893 18.89° C 63% 1014.6 hPa 0 mm - - -
1788568293 18.89° C 64% 1014.5 hPa 0 mm - - -
1788567693 19.44° C 61% 1014.5 hPa 0 mm - - -
1788567098 20° C 63% 1014.5 hPa 0 mm - - -
1788566497 20.56° C 58% 1014.4 hPa 0 mm - - -
1788565893 21.11° C 55% 1014.2 hPa 0 mm - - -
1788565292 21.67° C 56% 1014.1 hPa 0 mm - - -
1788564690 21.11° C 58% 1014.2 hPa 0 mm - - -
1788564092 21.11° C 53% 1014.1 hPa 0 mm - - -
1788563493 20.56° C 55% 1014.2 hPa 0 mm - - -
1788562904 20.56° C 55% 1014.1 hPa 0 mm - - -
1788562300 20° C 59% 1014 hPa 0 mm - - -
1788561700 20° C 55% 1014.1 hPa 0 mm - - -
1788561102 20° C 58% 1014.1 hPa 0 mm - - -
1788560484 20° C 58% 1014.1 hPa 0 mm - - -
1788559901 20° C 60% 1014 hPa 0 mm - - -
1788559299 20° C 62% 1014 hPa 0 mm - - -
1788558692 20° C 64% 1013.8 hPa 0 mm - - -

* Rain latest hour (hover to see other rain measurements)
** Current wind speed in m/s (hover to see current wind gust speed)